Flag for Kuwait Weather past 2 weeks in Kuwait City, Kuwait

Now
84 °F

Sunny.


Feels Like: 81 °F
Forecast: 61 / 78 °F
Wind: 14 mph from North

Location: Kuwait International Airport

Current Time: Mar 27, 2015 at 5:10:54 PM

Latest Report: Mar 27, 2015 at 4:00 PM


Visibility: 10 mi

Pressure: 29.95 "Hg

Humidity: 16%

Dew point: 34 °F

Location of Kuwait CityLocation

Historic Weather in Kuwait City — Graph

°F

Kuwait City temperature yesterday

Maximum temperature yesterday: 81 °F (at 11:00 AM)
Minimum temperature yesterday: 64 °F (at 1:00 AM)
Average temperature yesterday: 71 °F

Past Weeks' High & Low Weather Summary

 TemperatureHumidityPressure
High88 °F (Mar 20, 1:00 PM)100% (Mar 17, 5:00 AM)30.18 "Hg (Mar 17, 5:00 AM)
Low46 °F (Mar 24, 6:00 AM)16% (Mar 27, 4:00 PM)29.80 "Hg (Mar 20, 2:00 AM)
Average70 °F64%29.97 "Hg
* Reported Mar 12 4:00 PM — Mar 27 4:00 PM, Kuwait City, Weather by CustomWeather, © 2015

Note: Actual official high and low records may vary slightly from our data, if they occured in-between our weather recording intervals... More about our weather records

Advertising

Kuwait City weather history for previous 24 hours

 ConditionsComfort  
Time TempWeatherWind HumidityBarometerVisibility
4:00 PM
Fri, Mar 27
84 °FSunny.14 mph16%29.95 "Hg10 mi
3:00 PM84 °FSunny.10 mph18%29.98 "Hg10 mi
2:00 PM82 °FSunny.15 mph19%29.98 "Hg10 mi
1:00 PM81 °FSunny.16 mph21%30.01 "Hg10 mi
12:00 PM79 °FSunny.17 mph23%30.04 "Hg10 mi
11:00 AM77 °FSunny.16 mph28%30.07 "Hg10 mi
10:00 AM75 °FSunny.14 mph34%30.09 "Hg10 mi
9:00 AM72 °FSunny.13 mph38%30.09 "Hg10 mi
8:00 AM68 °FSunny.16 mph46%30.07 "Hg10 mi
7:00 AM66 °FSunny.9 mph49%30.07 "Hg10 mi
6:00 AM66 °FSunny.9 mph49%30.07 "Hg10 mi
5:00 AM68 °FPassing clouds.12 mph46%30.04 "HgN/A
4:00 AM68 °FPassing clouds.10 mph49%30.01 "HgN/A
3:00 AM68 °FPassing clouds.12 mph69%30.01 "HgN/A
2:00 AM68 °FPassing clouds.9 mph88%30.01 "Hg4 mi
1:00 AM68 °FPassing clouds.7 mph88%30.01 "Hg3 mi
12:00 AM68 °FFog.6 mph88%30.01 "Hg3 mi
11:00 PM
Thu, Mar 26
68 °FFog.No wind83%30.01 "Hg3 mi
10:00 PM68 °FClear.No wind88%30.01 "Hg4 mi
9:00 PM68 °FClear.No wind88%30.01 "Hg10 mi
8:00 PM70 °FClear.No wind83%30.01 "Hg10 mi
7:00 PM70 °FPassing clouds.No wind83%29.98 "Hg4 mi
6:00 PM70 °FPartly sunny.14 mph83%29.95 "Hg4 mi
5:00 PM72 °FPartly sunny.8 mph73%29.95 "Hg4 mi
Weather by CustomWeather, © 2015

See weather overviewHow to use our weather pages